Location: Emblem
(62.4273°N, 6.4710°E)
Time: 07:16:34
(UTC+01:00)

Vanguard 2 - All Passes

Search period start: 06 February 2023 00:00
Search period end: 16 February 2023 00:00
Orbit: 553 x 2930 km, 32.9° (Epoch: 05 February)

Date Brightness Start Highest point End Pass type
(mag) Time Alt. Az. Time Alt. Az. Time Alt. Az.
06 Feb - 00:39:19 10° SW 00:49:16 20° S 00:59:55 10° SSE night (unlit)
06 Feb - 02:49:58 10° SW 02:56:57 14° SSW 03:03:58 10° S visible
06 Feb - 20:47:27 10° SSE 20:50:22 11° SE 20:53:27 10° SE visible
06 Feb - 22:48:40 10° SSW 22:57:22 18° SSE 23:07:17 10° SE visible
07 Feb - 00:55:47 10° SW 01:05:12 19° SSW 01:15:18 10° SSE night (unlit)
07 Feb - 03:08:43 10° SW 03:12:42 11° SW 03:16:44 10° SSW night (unlit)
07 Feb - 21:01:10 10° S 21:06:06 13° SSE 21:11:35 10° SE visible
07 Feb - 23:04:34 10° SSW 23:13:18 19° S 23:23:18 10° SE visible
08 Feb - 01:12:30 10° SW 01:21:07 17° SSW 01:30:20 10° SSE night (unlit)
08 Feb - 21:16:01 10° S 21:21:54 14° SSE 21:28:37 10° SE visible
08 Feb - 23:20:41 10° SW 23:29:15 18° S 23:39:05 10° SE visible
09 Feb - 01:29:38 10° SW 01:37:00 15° SSW 01:44:51 10° S night (unlit)
09 Feb - 21:31:23 10° S 21:37:46 15° SSE 21:45:11 10° SE visible
09 Feb - 23:37:02 10° SW 23:45:13 18° S 23:54:35 10° SSE visible
10 Feb - 01:47:33 10° SW 01:52:51 12° SSW 01:58:25 10° S night (unlit)
10 Feb - 21:47:06 10° SSW 21:53:40 16° SSE 22:01:23 10° SE visible
10 Feb - 23:53:40 10° SW 00:01:11 16° S 00:09:43 10° SSE visible
11 Feb - 22:03:07 10° SSW 22:09:37 16° S 22:17:18 10° SE visible
12 Feb - 00:10:40 10° SW 00:17:09 14° SSW 00:24:23 10° S visible
12 Feb - 20:16:15 10° SSE 20:18:40 11° SSE 20:21:15 10° SE visible
12 Feb - 22:19:23 10° SSW 22:25:36 15° S 22:32:54 10° SSE visible
13 Feb - 00:28:23 10° SW 00:33:05 12° SSW 00:38:11 10° S visible
13 Feb - 20:31:18 10° S 20:34:32 12° SSE 20:38:09 10° SE visible
13 Feb - 22:35:58 10° SSW 22:41:35 14° S 22:48:07 10° SSE visible
14 Feb - 20:47:01 10° S 20:50:29 12° SSE 20:54:22 10° SSE visible
14 Feb - 22:53:00 10° SSW 22:57:36 13° S 23:02:47 10° SSE visible
15 Feb - 21:03:12 10° S 21:06:27 12° S 21:10:05 10° SSE visible
15 Feb - 23:11:10 10° SSW 23:13:36 11° SSW 23:16:11 10° S visible
